Terminal Aerodrome Forecast
Issued by NWS Cleveland, OH

Home | Current Version | Previous Version | Graphics & Text | Print | Product List | Glossary On
Versions: 1 2 3 4 5 6 7 8 9 10 11 12 13 14 15 16 17 18 19 20 21 22 23 24
000
FTUS41 KCLE 171000 AAC
TAFTOL
TAF AMD
KTOL 171027Z 1710/1806 27004KT 2SM BR SCT010
     FM171200 29004KT 4SM BR SCT012
     FM171400 33005KT P6SM SCT015
     FM180000 21004KT P6SM SKC=

USA.gov is the U.S. government's official web portal to all federal, state and local government web resources and services.